Zurück zum Katalog

STARLINK-3071

AktivKommunikationVLEO
NORAD 49147·PAYLOAD·🇺🇸 United States

Gestartet Sep 14, 2021 von Vandenberg Space Force Base

Loading…

Nächste Überflüge (nächste 24 Stunden)

TLE

AktuellSource: CelesTrak SupGP

Epoche: Sep 14, 2026, 21:17 UTC

1 49147C 21082T   26257.88729167 -.00025385  00000+0 -21277-2 0  2570
2 49147  70.0003 137.4237 0002710 270.8083 230.0700 14.98338247    14

Verfolge STARLINK-3071 in Echtzeit mit AllMySat

Download on the App Store